Weather History for Sedalia, MO

Change the Weather History Date:

Saturday, September 7, 2013

  Actual Average Record
Temperature  
Mean Temperature 80 °F 72 °F  
Max Temperature 93 °F 83 °F 100 °F (1939)
Min Temperature 66 °F 62 °F 36 °F (1988)
Degree Days  
Heating Degree Days 0 0  
Month to date heating degree days 0 0  
Since 1 July heating degree days 0 1  
Cooling Degree Days 15 8  
Month to date cooling degree days 71 61  
Year to date cooling degree days 1286 1346  
Growing Degree Days 30 (Base 50)    
Moisture  
Dew Point 66 °F    
Average Humidity 64    
Maximum Humidity 81    
Minimum Humidity 46    
Precipitation  
Precipitation 0.00 in 0.16 in 1.90 in (1969)
Month to date precipitation 1.63 1.15  
Year to date precipitation 31.54 29.09  
Sea Level Pressure  
Sea Level Pressure 29.97 in    
Wind  
Wind Speed 8 mph (SSW)    
Max Wind Speed 13 mph    
Max Gust Speed 16 mph    
Visibility 10 miles    
Events      
T = Trace of Precipitation, MM = Missing Value Source: NWS Daily Summary

Daily Weather History Graph

Daily Weather History Graph

Search for Another Location

Airport:

Trip Planner

Search our weather history database for the weather conditions in past years. The results will help you decide how hot, cold, wet, or windy it might be!

Date:

Astronomy

Sep. 07, 2013 Rise Set
Actual Time 6:47 AM CDT 7:33 PM CDT
Civil Twilight 6:20 AM CDT 8:00 PM CDT
Nautical Twilight 5:48 AM CDT 8:31 PM CDT
Astronomical Twilight 5:15 AM CDT 9:04 PM CDT
Moon 9:00 AM CDT (9/7) 8:34 PM CDT (9/7)
Length of Visible Light 13h 39m
Length of Day
12h 45m
Waxing Crescent, 5% of the Moon is Illuminated
Sep 7
Waxing Crescent
Sep 12
First Quarter
Sep 19
Full
Sep 26
Last Quarter
Oct 4
New

Hourly Weather History & Observations

Time (CDT) Temp. Heat Index Dew Point Humidity Pressure Visibility Wind Dir Wind Speed Gust Speed Precip Events Conditions
12:53 AM 66.9 °F - 61.0 °F 81% 30.01 in 10.0 mi South 8.1 mph - N/A   Clear
1:53 AM 66.9 °F - 61.0 °F 81% 30.02 in 10.0 mi South 6.9 mph - N/A   Clear
2:53 AM 66.9 °F - 61.0 °F 81% 30.01 in 10.0 mi South 8.1 mph - N/A   Clear
3:53 AM 66.9 °F - 61.0 °F 81% 30.01 in 10.0 mi South 8.1 mph - N/A   Clear
4:53 AM 68.0 °F - 62.1 °F 81% 30.00 in 10.0 mi South 8.1 mph - N/A   Clear
5:53 AM 69.1 °F - 63.0 °F 81% 30.01 in 10.0 mi SSW 9.2 mph - N/A   Clear
6:53 AM 69.1 °F - 63.0 °F 81% 30.02 in 10.0 mi SSW 8.1 mph - N/A   Clear
7:53 AM 72.0 °F - 64.0 °F 76% 30.02 in 10.0 mi SSW 8.1 mph - N/A   Clear
8:53 AM 75.9 °F - 66.0 °F 71% 30.03 in 10.0 mi SSW 9.2 mph - N/A   Clear
9:53 AM 80.1 °F 82.3 °F 66.9 °F 64% 30.03 in 10.0 mi SW 11.5 mph - N/A   Clear
10:53 AM 84.0 °F 87.0 °F 68.0 °F 58% 30.03 in 10.0 mi SSW 8.1 mph - N/A   Clear
11:53 AM 87.1 °F 90.6 °F 68.0 °F 53% 30.01 in 10.0 mi SW 9.2 mph - N/A   Clear
12:53 PM 90.0 °F 93.6 °F 68.0 °F 48% 29.99 in 10.0 mi SSW 11.5 mph - N/A   Clear
1:53 PM 89.1 °F 92.9 °F 68.0 °F 50% 29.97 in 10.0 mi SSW 6.9 mph - N/A   Clear
2:53 PM 91.9 °F 96.9 °F 69.1 °F 47% 29.94 in 10.0 mi SSW 8.1 mph - N/A   Clear
3:53 PM 93.0 °F 97.9 °F 69.1 °F 45% 29.92 in 10.0 mi SSW 8.1 mph - N/A   Clear
4:53 PM 91.9 °F 96.9 °F 69.1 °F 47% 29.91 in 10.0 mi SW 6.9 mph - N/A   Clear
5:53 PM 91.0 °F 95.6 °F 69.1 °F 48% 29.91 in 10.0 mi SW 6.9 mph - N/A   Clear
6:53 PM 89.1 °F 93.7 °F 69.1 °F 52% 29.92 in 10.0 mi SW 6.9 mph - N/A   Clear
7:53 PM 86.0 °F 90.7 °F 70.0 °F 59% 29.91 in 10.0 mi SSW 8.1 mph - N/A   Clear
8:53 PM 84.0 °F 87.8 °F 69.1 °F 61% 29.90 in 10.0 mi South 5.8 mph - N/A   Clear
9:53 PM 80.1 °F 82.7 °F 68.0 °F 67% 29.91 in 10.0 mi South 6.9 mph - N/A   Clear
10:53 PM 81.0 °F 83.8 °F 68.0 °F 65% 29.91 in 10.0 mi SSW 5.8 mph - N/A   Clear
11:53 PM 79.0 °F - 68.0 °F 69% 29.92 in 10.0 mi SSW 5.8 mph - N/A   Clear